Notices

What's New in latest Release from April 7th, 2021:

- Updated Glossary, including Speed of Maximum Gust, and Total Hourly Precipitation

- Updated national and regional climate services offices contacts and prices information

- Addition of station inventory lists for 1981-2010, 1971-2000, and 1961-1990 Normals.

If you haven't already, please take our survey and provide feedback about our website: https://eccc.sondage-survey.ca/f/LanguageSelection.aspx?s=442ca660-fcf1-47c0-95a9-59707d6fd709

Hourly Data Report for March 05, 2021

MIRAMICHI RCS
NEW BRUNSWICK
Current Station Operator: ECCC - MSC

47°00'34.000" N
65°27'54.000" W
33.00 m
8100989
71744
ACQ

Download Data

Hourly Data (March 2021)
Hourly Data Report for March 5, 2021
TIME
LST
Temp Definition
°C
Dew Point Definition
°C
Rel Hum Definition
%
Precip. Amount Definition
mm

Wind Dir Definition
10's deg

Wind Spd Definition
km/h
Visibility Definition
km
Stn Press Definition
kPa
Hmdx Definition


Wind Chill Definition


Weather Definition


00:00 -10.4 -17.1 58 LegendMM 27 19   98.74   -18 LegendNANA
01:00 -10.7 -16.9 60 LegendMM 26 15   98.77   -18 LegendNANA
02:00 -10.7 -16.7 61 LegendMM 26 12   98.80   -17 LegendNANA
03:00 -11.6 -17.3 63 LegendMM 24 14   98.80   -18 LegendNANA
04:00 -11.2 -17.0 62 LegendMM 26 14   98.80   -18 LegendNANA
05:00 -12.1 -17.2 65 LegendMM 26 14   98.84   -19 LegendNANA
06:00 -12.5 -17.5 66 LegendMM 26 13   98.89   -19 LegendNANA
07:00 -13.5 -17.9 69 LegendMM 25 11   98.94   -20 LegendNANA
08:00 -12.1 -17.5 64 LegendMM 26 13   99.00   -19 LegendNANA
09:00 -10.6 -17.3 58 LegendMM 29 18   99.01   -18 LegendNANA
10:00 -9.1 -17.0 53 LegendMM 27 20   99.04   -17 LegendNANA
11:00 -7.6 -16.3 50 LegendMM 25 14   99.04   -14 LegendNANA
12:00 -6.4 -14.8 51 LegendMM 22 17   99.02   -13 LegendNANA
13:00 -5.0 -14.0 49 LegendMM 23 21   98.97   -12 LegendNANA
14:00 -3.9 -13.6 47 LegendMM 24 21   98.94   -10 LegendNANA
15:00 -3.8 -13.4 47 LegendMM 23 27   98.97   -11 LegendNANA
16:00 -2.8 -13.6 43 LegendMM 24 22   98.98   -9 LegendNANA
17:00 -3.2 -14.4 42 LegendMM 25 20   99.06   -9 LegendNANA
18:00 -5.5 -15.2 46 LegendMM 26 18   99.16   -12 LegendNANA
19:00 -6.7 -15.5 50 LegendMM 26 16   99.27   -13 LegendNANA
20:00 -7.7 -15.8 52 LegendMM 25 13   99.31   -13 LegendNANA
21:00 -7.9 -15.9 52 LegendMM 28 20   99.37   -15 LegendNANA
22:00 -8.8 -16.0 56 LegendMM 28 13   99.44   -15 LegendNANA
23:00 -9.4 -16.9 54 LegendMM 27 15   99.50   -16 LegendNANA

Notes on Data Quality.

Legend

  • E = Estimated
  • M = Missing
  • NA = Not Available*
  • [empty] = Indicates an unobserved value
Date modified: